 ,,�O�C���x [��],����1,�O�C���x [��],����2,���ԉ��x [��],����3,���Ԏ��x [��],����4,�Q�����x [��],����5,�Q�����x [��],����6,�Q�X�g���[��(��󒲎�)���x [��],����7,���� [��],����8
2004/5/1,0:00,13.5,0,78.1,0,20.8,0,47.7,0,20.7,0,46,0,20.9,0,13.3,0
2004/5/1,0:15,13.3,0,79.8,0,20.8,0,47.8,0,20.7,0,46.1,0,20.9,0,13.4,0
2004/5/1,0:30,13.3,0,79.5,0,20.7,0,47.9,0,20.7,0,46.4,0,20.9,0,13.5,0
2004/5/1,0:45,13.3,0,80.3,0,20.7,0,47.9,0,20.6,0,46.1,0,20.8,0,13.6,0
2004/5/1,1:00,13.3,0,80.6,0,20.7,0,47.9,0,20.6,0,46.1,0,20.8,0,13.7,0
2004/5/1,1:15,12.9,0,78.9,0,20.6,0,48,0,20.6,0,46.3,0,20.7,0,13.8,0
2004/5/1,1:30,12.8,0,83.5,0,20.6,0,48,0,20.5,0,46.3,0,20.7,0,13.9,0
2004/5/1,1:45,12.8,0,83.8,0,20.6,0,48.1,0,20.5,0,46.5,0,20.7,0,14,0
2004/5/1,2:00,12.6,0,85.7,0,20.5,0,47.9,0,20.4,0,46.4,0,20.6,0,14.1,0
2004/5/1,2:15,12.7,0,84,0,20.6,0,48.4,0,20.4,0,46.7,0,20.6,0,14.2,0
2004/5/1,2:30,13.9,0,73.5,0,20.5,0,48.7,0,20.4,0,47.3,0,20.5,0,13.4,0
2004/5/1,2:45,14.7,0,66.6,0,20.5,0,48.4,0,20.4,0,47.2,0,20.5,0,13.7,0
2004/5/1,3:00,15.1,0,66.2,0,20.4,0,48.2,0,20.3,0,47.4,0,20.5,0,13.8,0
2004/5/1,3:15,15.1,0,67.7,0,20.4,0,48.4,0,20.3,0,47.4,0,20.4,0,13.9,0
2004/5/1,3:30,14.9,0,70.2,0,20.3,0,48.3,0,20.3,0,47.5,0,20.4,0,14,0
2004/5/1,3:45,14.8,0,71.2,0,20.3,0,48.3,0,20.2,0,47.1,0,20.4,0,14,0
2004/5/1,4:00,14.6,0,73.8,0,20.3,0,48.5,0,20.2,0,47.6,0,20.3,0,14.1,0
2004/5/1,4:15,14.6,0,74.8,0,20.2,0,48.5,0,20.2,0,47.9,0,20.3,0,14.2,0
2004/5/1,4:30,14.4,0,77.7,0,20.2,0,48.6,0,20.2,0,48.2,0,20.3,0,14.3,0
2004/5/1,4:45,14.3,0,79.2,0,20.2,0,48.7,0,20.1,0,47.9,0,20.2,0,13.3,0
2004/5/1,5:00,14.4,0,78.5,0,20.1,0,48.7,0,20.1,0,48.7,0,20.2,0,13.3,0
2004/5/1,5:15,14.2,0,80.4,0,20.1,0,48.5,0,20.1,0,48.1,0,20.2,0,13.3,0
2004/5/1,5:30,14.4,0,78.4,0,20,0,48.5,0,20.1,0,48,0,20.1,0,13.4,0
2004/5/1,5:45,14.7,0,76.8,0,20,0,48.5,0,20,0,48.3,0,20.1,0,13.5,0
2004/5/1,6:00,14.8,0,76.6,0,19.9,0,48.4,0,20,0,48.4,0,20.1,0,13.6,0
2004/5/1,6:15,15.1,0,77.3,0,19.9,0,48.7,0,20,0,48.5,0,20,0,13.2,0
2004/5/1,6:30,15.1,0,77.3,0,20,0,50.3,0,20,0,48.5,0,20,0,13.4,0
2004/5/1,6:45,15.3,0,77.4,0,20,0,50.1,0,20.1,0,50.2,0,20.1,0,13.4,0
2004/5/1,7:00,16,0,73.8,0,19.9,0,50.6,0,20.1,0,49.8,0,20,0,13.5,0
2004/5/1,7:15,15.5,0,73.6,0,20,0,51.4,0,20.2,0,50.3,0,19.8,0,13.6,0
2004/5/1,7:30,14.9,0,73.1,0,19.9,0,50.9,0,20.1,0,49.2,0,19.7,0,13.7,0
2004/5/1,7:45,15.4,0,69.5,0,19.9,0,50.9,0,20.1,0,48.7,0,19.5,0,13.7,0
2004/5/1,8:00,16.3,0,62.9,0,19.9,0,50.3,0,20.1,0,48.5,0,19.3,0,13.4,0
2004/5/1,8:15,17.3,0,58.7,0,19.9,0,51.1,0,20,0,48.2,0,19.3,0,13.6,0
2004/5/1,8:30,17.7,0,55.8,0,20.1,0,52,0,20.1,0,49.5,0,19.5,0,13.7,0
2004/5/1,8:45,17.6,0,55.3,0,20.1,0,52,0,20.1,0,47.7,0,19.6,0,13.8,0
2004/5/1,9:00,17,0,57.6,0,20.1,0,52.2,0,20.3,0,50.4,0,19.8,0,13.9,0
2004/5/1,9:15,16.8,0,57.9,0,20.2,0,51.5,0,20.3,0,49.4,0,20,0,14.1,0
2004/5/1,9:30,16.6,0,57.6,0,20.2,0,51.4,0,20.3,0,49.3,0,20.1,0,14.2,0
2004/5/1,9:45,16.9,0,56,0,20.3,0,52,0,20.3,0,49.5,0,20.1,0,13,0
2004/5/1,10:00,17.4,0,52.5,0,20.4,0,54.4,0,20.4,0,50.1,0,20.2,0,13.2,0
2004/5/1,10:15,17.9,0,51,0,20.5,0,53.1,0,20.5,0,51.2,0,20.3,0,12.6,0
2004/5/1,10:30,17.8,0,50.4,0,20.5,0,52.6,0,20.5,0,50.2,0,20.4,0,12.3,0
2004/5/1,10:45,18,0,48.5,0,20.6,0,52.8,0,20.6,0,50.6,0,20.4,0,12.5,0
2004/5/1,11:00,19.1,0,45,0,20.7,0,52.4,0,20.7,0,49.7,0,20.5,0,12.6,0
2004/5/1,11:15,18.8,0,45.2,0,20.8,0,53.2,0,21,0,48.8,0,20.5,0,12.8,0
2004/5/1,11:30,19.2,0,46.7,0,21,0,52.2,0,21.3,0,46.8,0,20.6,0,13,0
2004/5/1,11:45,20,0,45.8,0,21.1,0,51.3,0,21.5,0,45.6,0,20.7,0,13.2,0
2004/5/1,12:00,16.7,0,65.8,0,21.1,0,51.7,0,21.8,0,46.8,0,20.9,0,13.4,0
2004/5/1,12:15,15.6,0,68.8,0,21.1,0,57,0,22.1,0,47.3,0,21,0,13.5,0
2004/5/1,12:30,16.2,0,65.5,0,21.2,0,57.7,0,22.3,0,47.9,0,21.1,0,13.7,0
2004/5/1,12:45,15.9,0,67.9,0,21.2,0,59,0,22.4,0,47.8,0,21.2,0,13.9,0
2004/5/1,13:00,15.4,0,68.5,0,21.3,0,58.8,0,22.4,0,48.1,0,21.4,0,13.4,0
2004/5/1,13:15,15.6,0,63.3,0,21.5,0,58.1,0,22.5,0,48.7,0,21.5,0,13.2,0
2004/5/1,13:30,15.3,0,64.7,0,21.6,0,57.3,0,22.5,0,47.9,0,21.6,0,13.2,0
2004/5/1,13:45,15.6,0,64.1,0,21.5,0,56.1,0,22.6,0,47.8,0,21.7,0,13.2,0
2004/5/1,14:00,15.6,0,63.1,0,21.5,0,55.6,0,22.7,0,47.6,0,21.8,0,13.3,0
2004/5/1,14:15,15.4,0,63.3,0,21.6,0,55.3,0,22.8,0,47.2,0,21.9,0,13.4,0
2004/5/1,14:30,15.3,0,63.5,0,21.6,0,54.9,0,22.8,0,47.1,0,22,0,13.6,0
2004/5/1,14:45,15,0,62.2,0,21.5,0,54.6,0,22.7,0,47.9,0,22.1,0,13.7,0
2004/5/1,15:00,14.8,0,62.7,0,21.5,0,54.4,0,22.6,0,47.7,0,22.1,0,13.8,0
2004/5/1,15:15,15.1,0,62.5,0,21.4,0,54,0,22.5,0,47.9,0,22.2,0,14,0
2004/5/1,15:30,14.2,0,63,0,21.4,0,53.9,0,22.4,0,48.5,0,22.1,0,14.1,0
2004/5/1,15:45,14.3,0,63.3,0,21.3,0,52.1,0,22.3,0,48.2,0,22.1,0,14.2,0
2004/5/1,16:00,13.8,0,65.6,0,21.3,0,52.3,0,22.2,0,48.6,0,22.1,0,14.4,0
2004/5/1,16:15,13.4,0,65.2,0,21.2,0,52.3,0,22.1,0,47.7,0,22,0,14.5,0
2004/5/1,16:30,12.5,0,66.5,0,21.2,0,52.2,0,22,0,48.1,0,21.9,0,14.6,0
2004/5/1,16:45,12.3,0,67,0,21.1,0,51.8,0,21.9,0,47.5,0,21.9,0,14.7,0
2004/5/1,17:00,12,0,69.5,0,21,0,51.5,0,21.8,0,47.3,0,21.8,0,14.8,0
2004/5/1,17:15,11.6,0,71.2,0,20.9,0,51.1,0,21.7,0,47.8,0,21.8,0,14.9,0
2004/5/1,17:30,11.3,0,71.6,0,20.9,0,51,0,21.7,0,47.5,0,21.7,0,15.1,0
2004/5/1,17:45,11.1,0,72.7,0,20.8,0,50.9,0,21.5,0,47,0,21.6,0,15.2,0
2004/5/1,18:00,11.2,0,73.8,0,20.7,0,50.8,0,21.5,0,47.3,0,21.5,0,15.3,0
2004/5/1,18:15,10.6,0,74.7,0,20.7,0,50.4,0,21.4,0,46.9,0,21.5,0,15.4,0
2004/5/1,18:30,10.4,0,75.3,0,20.6,0,50.3,0,21.3,0,46.7,0,21.4,0,15.6,0
2004/5/1,18:45,10.5,0,74.6,0,20.8,0,50.1,0,21.2,0,46.8,0,21.3,0,12.6,0
2004/5/1,19:00,10.3,0,75.8,0,20.8,0,50.4,0,21.1,0,46.9,0,21.2,0,12.5,0
2004/5/1,19:15,10.3,0,73.3,0,20.8,0,50.4,0,21.1,0,47.3,0,21.2,0,12.8,0
2004/5/1,19:30,9.9,0,71.3,0,20.7,0,50.3,0,21,0,47.4,0,21.1,0,12.8,0
2004/5/1,19:45,9.6,0,71,0,20.9,0,51.8,0,21,0,48.8,0,21,0,12.9,0
2004/5/1,20:00,9.5,0,69.9,0,20.9,0,51.5,0,21,0,50.2,0,21,0,13,0
2004/5/1,20:15,9.3,0,69.7,0,21,0,53.5,0,21,0,54.3,0,21,0,13.1,0
2004/5/1,20:30,9.2,0,70.1,0,20.9,0,53.3,0,20.9,0,52,0,21,0,13.2,0
2004/5/1,20:45,9.1,0,70.1,0,20.9,0,52.1,0,20.8,0,50.2,0,21,0,13.3,0
2004/5/1,21:00,9.2,0,70.3,0,20.8,0,52.1,0,20.8,0,49.7,0,21,0,13.4,0
2004/5/1,21:15,9.2,0,71.2,0,20.8,0,51.7,0,20.7,0,50,0,20.9,0,13.5,0
2004/5/1,21:30,9,0,71.8,0,20.7,0,50.8,0,20.6,0,49.4,0,20.9,0,13.6,0
2004/5/1,21:45,9,0,71.5,0,20.6,0,50.5,0,20.5,0,49.2,0,20.8,0,13.8,0
2004/5/1,22:00,9,0,72.2,0,20.5,0,50.2,0,20.5,0,49,0,20.7,0,13.9,0
2004/5/1,22:15,9,0,72.3,0,20.5,0,49.9,0,20.4,0,48.7,0,20.7,0,14,0
2004/5/1,22:30,8.8,0,72.6,0,20.4,0,49.8,0,20.3,0,48.6,0,20.6,0,14.1,0
2004/5/1,22:45,8.9,0,73,0,20.3,0,49.5,0,20.2,0,48.6,0,20.5,0,14.1,0
2004/5/1,23:00,8.9,0,73.6,0,20.3,0,49.4,0,20.1,0,48.4,0,20.5,0,14.2,0
2004/5/1,23:15,8.9,0,74.4,0,20.2,0,49.3,0,20.1,0,48.3,0,20.4,0,14.3,0
2004/5/1,23:30,8.8,0,75.2,0,20.1,0,49,0,20,0,48.1,0,20.3,0,14.4,0
2004/5/1,23:45,8.7,0,75.2,0,20.1,0,48.9,0,19.9,0,48.1,0,20.2,0,14.5,0
2004/5/2,0:00,8.7,0,75.2,0,20,0,49.1,0,19.9,0,48,0,20.2,0,14.6,0
2004/5/2,0:15,8.7,0,76,0,20,0,48.9,0,19.9,0,48.1,0,20.1,0,13.7,0
2004/5/2,0:30,8.6,0,76.5,0,19.9,0,48.8,0,19.8,0,47.9,0,20,0,13.2,0
2004/5/2,0:45,8.6,0,76.9,0,19.8,0,48.4,0,19.8,0,48.1,0,20,0,12.9,0
2004/5/2,1:00,8.7,0,78.8,0,19.7,0,48.3,0,19.8,0,47.9,0,19.9,0,12.9,0
2004/5/2,1:15,8.5,0,79.7,0,19.7,0,48,0,19.8,0,48,0,19.8,0,12.9,0
2004/5/2,1:30,8.6,0,79.6,0,19.6,0,47.9,0,19.7,0,47.8,0,19.8,0,13,0
2004/5/2,1:45,8.6,0,79.4,0,19.5,0,47.7,0,19.7,0,47.6,0,19.7,0,13.1,0
2004/5/2,2:00,8.6,0,79.7,0,19.4,0,47.6,0,19.7,0,47.8,0,19.7,0,13.2,0
2004/5/2,2:15,8.5,0,82.5,0,19.4,0,47.5,0,19.6,0,47.8,0,19.6,0,13.2,0
2004/5/2,2:30,8.5,0,80.1,0,19.3,0,47.4,0,19.5,0,47.7,0,19.6,0,13.1,0
2004/5/2,2:45,8.3,0,82.5,0,19.3,0,47.2,0,19.5,0,48.1,0,19.5,0,13.1,0
2004/5/2,3:00,8.2,0,84.1,0,19.2,0,47.2,0,19.4,0,47.9,0,19.5,0,13.2,0
2004/5/2,3:15,8.1,0,85.3,0,19.1,0,47.2,0,19.3,0,48,0,19.4,0,13.2,0
2004/5/2,3:30,7.7,0,89.7,0,19,0,47.2,0,19.3,0,48,0,19.4,0,13.3,0
2004/5/2,3:45,6.9,0,93.1,0,19,0,47.3,0,19.2,0,48.3,0,19.3,0,13.4,0
2004/5/2,4:00,6.5,0,94.1,0,18.9,0,47.3,0,19.2,0,48.2,0,19.2,0,13.5,0
2004/5/2,4:15,6.2,0,95.5,0,18.8,0,47.4,0,19.1,0,47.9,0,19.2,0,13.6,0
2004/5/2,4:30,5.9,0,96.4,0,18.7,0,47.4,0,19.1,0,48.5,0,19.1,0,13.6,0
2004/5/2,4:45,5.5,0,97.8,0,18.7,0,47.4,0,19.1,0,48.5,0,19.1,0,13.7,0
2004/5/2,5:00,5.4,0,98.4,0,18.6,0,47.5,0,19.1,0,48.5,0,19,0,13.8,0
2004/5/2,5:15,5.5,0,99.1,0,18.5,0,47.6,0,19,0,48.4,0,19,0,13.9,0
2004/5/2,5:30,5.8,0,98.5,0,18.5,0,47.6,0,19,0,48.1,0,19,0,13.9,0
2004/5/2,5:45,8.1,0,87.6,0,18.4,0,47.6,0,18.9,0,49,0,18.9,0,14,0
2004/5/2,6:00,7,0,94.8,0,18.3,0,47.6,0,18.9,0,49.1,0,18.9,0,14.1,0
2004/5/2,6:15,7.6,0,93.2,0,18.3,0,47.7,0,19,0,48.8,0,18.9,0,14.1,0
2004/5/2,6:30,8.5,0,85.5,0,18.3,0,47.8,0,18.9,0,48.7,0,18.9,0,14.2,0
2004/5/2,6:45,9.1,0,79.4,0,18.4,0,49.8,0,19.1,0,49.1,0,19,0,13.6,0
2004/5/2,7:00,9,0,76.3,0,18.5,0,50.7,0,19,0,48.9,0,19,0,13.7,0
2004/5/2,7:15,9.2,0,73.8,0,18.6,0,51.8,0,19.1,0,48.7,0,19,0,13.7,0
2004/5/2,7:30,9.8,0,66.4,0,18.6,0,51.4,0,19.1,0,49.7,0,19.1,0,13.8,0
2004/5/2,7:45,10.2,0,62.3,0,18.7,0,51.8,0,19.1,0,49.2,0,19.2,0,13.1,0
2004/5/2,8:00,10.3,0,61.8,0,18.8,0,50.9,0,19.2,0,48.3,0,19.2,0,13.2,0
2004/5/2,8:15,10.4,0,62.9,0,18.9,0,50.2,0,19.2,0,47.9,0,19.3,0,12.7,0
2004/5/2,8:30,10.3,0,62.1,0,19,0,50,0,19.3,0,47.3,0,19.3,0,12.5,0
2004/5/2,8:45,10.9,0,58.9,0,19,0,51.5,0,19.4,0,46.5,0,19.4,0,12.6,0
2004/5/2,9:00,11.2,0,55.6,0,19.2,0,53.2,0,19.6,0,47.4,0,19.4,0,12.6,0
2004/5/2,9:15,12.1,0,56.8,0,19.3,0,52.1,0,19.7,0,47.8,0,19.5,0,12.7,0
2004/5/2,9:30,12.2,0,55.6,0,19.4,0,62.8,0,19.8,0,52.1,0,19.5,0,12.8,0
2004/5/2,9:45,12.4,0,56.4,0,19.5,0,58.9,0,20,0,54.7,0,19.7,0,13,0
2004/5/2,10:00,13.8,0,54.8,0,19.4,0,55.8,0,19.9,0,50.1,0,19.7,0,13.1,0
2004/5/2,10:15,13,0,56,0,19.4,0,54.5,0,20.1,0,47.6,0,19.8,0,13.2,0
2004/5/2,10:30,12.9,0,48.2,0,19.4,0,51.5,0,20.1,0,44.6,0,19.8,0,13.3,0
2004/5/2,10:45,12.8,0,47,0,19.3,0,47.9,0,20.1,0,43.6,0,19.8,0,13.4,0
2004/5/2,11:00,13.7,0,46.2,0,19.2,0,46.7,0,20,0,38.3,0,19.7,0,13.6,0
2004/5/2,11:15,14,0,36.5,0,19.3,0,42.4,0,20.2,0,38.6,0,19.6,0,13.7,0
2004/5/2,11:30,13.6,0,41,0,19.3,0,41.1,0,20.2,0,37,0,19.5,0,13.9,0
2004/5/2,11:45,14,0,40.6,0,19.1,0,38.2,0,19.9,0,34.9,0,19.4,0,14,0
2004/5/2,12:00,14.3,0,35.9,0,19.3,0,40.4,0,20.2,0,36.5,0,19.4,0,14.2,0
2004/5/2,12:15,14,0,36.3,0,19.6,0,47.4,0,20.6,0,41,0,19.5,0,14.3,0
2004/5/2,12:30,14.6,0,36.7,0,19.6,0,48.3,0,20.5,0,40.8,0,19.6,0,14.5,0
2004/5/2,12:45,14.4,0,33.1,0,19.6,0,43.4,0,20.4,0,39.1,0,19.7,0,14.6,0
2004/5/2,13:00,14.6,0,33.7,0,19.8,0,42.5,0,20.5,0,36.8,0,19.8,0,14.8,0
2004/5/2,13:15,14.6,0,31.9,0,19.8,0,41.1,0,20.6,0,36.3,0,19.9,0,14.9,0
2004/5/2,13:30,15.1,0,32.6,0,19.7,0,38.1,0,20.6,0,33.8,0,19.9,0,15.1,0
2004/5/2,13:45,14.9,0,32.5,0,19.8,0,36.9,0,20.7,0,33.7,0,19.8,0,14.3,0
2004/5/2,14:00,15.2,0,28,0,20.1,0,39.4,0,20.9,0,34.7,0,19.9,0,12.9,0
2004/5/2,14:15,15.2,0,28.7,0,20.1,0,36.9,0,20.9,0,35.7,0,20,0,13.2,0
2004/5/2,14:30,14.6,0,32.9,0,20,0,35.3,0,20.6,0,36.1,0,20.1,0,13.3,0
2004/5/2,14:45,14.7,0,31.5,0,20.5,0,35.7,0,20.8,0,34.2,0,20.2,0,13.4,0
2004/5/2,15:00,14.6,0,35.5,0,20.4,0,32.7,0,20.9,0,33.1,0,20.3,0,13.5,0
2004/5/2,15:15,14.2,0,39.3,0,20.8,0,37.2,0,21.1,0,34.7,0,20.5,0,13.6,0
2004/5/2,15:30,13.7,0,48.4,0,20.8,0,39.3,0,21.2,0,35.4,0,20.8,0,13.4,0
2004/5/2,15:45,13.4,0,52.5,0,20.8,0,40.7,0,21.4,0,35.7,0,21.1,0,13.3,0
2004/5/2,16:00,13.3,0,55.1,0,20.7,0,42.4,0,21.5,0,36.4,0,21.3,0,13.4,0
2004/5/2,16:15,12.7,0,57.6,0,20.7,0,42.9,0,21.6,0,37.1,0,21.5,0,13.5,0
2004/5/2,16:30,12.1,0,61.2,0,20.6,0,42.7,0,21.7,0,37.6,0,21.8,0,13.5,0
2004/5/2,16:45,11.9,0,62.9,0,20.6,0,42.9,0,21.7,0,37.8,0,22,0,13.5,0
2004/5/2,17:00,11.6,0,62.2,0,20.5,0,43.1,0,21.5,0,38.9,0,22,0,13.5,0
2004/5/2,17:15,10.9,0,66.4,0,20.3,0,44,0,21.4,0,39.4,0,22,0,13.5,0
2004/5/2,17:30,10.5,0,69.3,0,20.2,0,44.4,0,21.2,0,39.7,0,21.9,0,13.6,0
2004/5/2,17:45,10.2,0,69.7,0,20,0,44.6,0,21,0,39.8,0,21.8,0,13.6,0
2004/5/2,18:00,10,0,71.7,0,19.9,0,44.7,0,20.9,0,40.2,0,21.7,0,13.8,0
2004/5/2,18:15,9.8,0,74.1,0,19.8,0,44.6,0,20.7,0,40.1,0,21.5,0,13.8,0
2004/5/2,18:30,9.5,0,75.9,0,19.7,0,44.7,0,20.6,0,40.7,0,21.4,0,13.9,0
2004/5/2,18:45,9.4,0,77.6,0,19.7,0,44.7,0,20.5,0,40.6,0,21.2,0,14,0
2004/5/2,19:00,9.3,0,78.6,0,19.6,0,44.4,0,20.4,0,40.7,0,21,0,14.1,0
2004/5/2,19:15,9.1,0,79.3,0,19.5,0,44.5,0,20.3,0,40.6,0,20.9,0,14.2,0
2004/5/2,19:30,9.2,0,79.2,0,19.4,0,44.7,0,20.2,0,40.9,0,20.8,0,14.3,0
2004/5/2,19:45,9.4,0,79.7,0,19.4,0,44.7,0,20,0,41.1,0,20.6,0,14.3,0
2004/5/2,20:00,9.4,0,79,0,19.3,0,44.7,0,20,0,41.2,0,20.5,0,14.4,0
2004/5/2,20:15,9.7,0,78.6,0,19.2,0,44.7,0,19.8,0,41.3,0,20.4,0,14.5,0
2004/5/2,20:30,9.6,0,73.3,0,19.4,0,45.1,0,19.8,0,41.6,0,20.3,0,13.6,0
2004/5/2,20:45,9.6,0,72.9,0,19.4,0,46.3,0,19.7,0,42,0,20.2,0,12.9,0
2004/5/2,21:00,9.6,0,72.6,0,19.4,0,47.9,0,19.7,0,43.2,0,20.1,0,13.2,0
2004/5/2,21:15,9.6,0,72.6,0,19.5,0,47.9,0,19.6,0,43.8,0,20.1,0,13.3,0
2004/5/2,21:30,9.5,0,73,0,19.5,0,47.3,0,19.6,0,44.9,0,20,0,13.4,0
2004/5/2,21:45,9.5,0,73.7,0,19.6,0,47.5,0,19.6,0,45,0,20,0,13.5,0
2004/5/2,22:00,9.6,0,74.3,0,19.5,0,47.4,0,19.5,0,45,0,19.9,0,13.7,0
2004/5/2,22:15,9.6,0,75.3,0,19.4,0,47.4,0,19.4,0,45,0,19.9,0,13.8,0
2004/5/2,22:30,9.6,0,76,0,19.5,0,47.1,0,19.4,0,45,0,19.8,0,13.3,0
2004/5/2,22:45,9.5,0,76.3,0,19.4,0,47.1,0,19.3,0,44.9,0,19.8,0,13.7,0
2004/5/2,23:00,9.5,0,77.6,0,19.3,0,47.1,0,19.3,0,45,0,19.7,0,13.8,0
2004/5/2,23:15,9.5,0,79.1,0,19.3,0,47.1,0,19.2,0,45,0,19.6,0,13.9,0
2004/5/2,23:30,9.3,0,80.3,0,19.3,0,47,0,19.1,0,44.9,0,19.6,0,14,0
2004/5/2,23:45,9.2,0,81.6,0,19.3,0,46.5,0,19.1,0,45,0,19.5,0,13.2,0
2004/5/3,0:00,9.2,0,82.3,0,19.2,0,46.7,0,19.1,0,45,0,19.5,0,13.6,0
2004/5/3,0:15,9.2,0,82.6,0,19.1,0,46.3,0,19,0,45.1,0,19.4,0,13.8,0
2004/5/3,0:30,9.1,0,81.9,0,19,0,46.2,0,19,0,45.1,0,19.4,0,13.9,0
2004/5/3,0:45,9.1,0,80.9,0,19,0,46.2,0,18.9,0,45,0,19.3,0,14,0
2004/5/3,1:00,9.1,0,76,0,18.9,0,46.3,0,18.9,0,45.1,0,19.2,0,14.1,0
2004/5/3,1:15,9,0,76,0,18.9,0,46.3,0,18.8,0,45.1,0,19.2,0,14.2,0
2004/5/3,1:30,9.1,0,76.1,0,18.8,0,46.3,0,18.8,0,45.1,0,19.1,0,14.3,0
2004/5/3,1:45,9,0,76,0,18.8,0,46.2,0,18.8,0,45.1,0,19.1,0,13.4,0
2004/5/3,2:00,9,0,77,0,18.7,0,46.4,0,18.7,0,45.5,0,19,0,13.4,0
2004/5/3,2:15,8.7,0,81.2,0,18.6,0,46.8,0,18.7,0,45.6,0,18.9,0,13.5,0
2004/5/3,2:30,8.7,0,83.2,0,18.6,0,46.9,0,18.7,0,45.7,0,18.9,0,13.6,0
2004/5/3,2:45,8.5,0,84.1,0,18.5,0,46.9,0,18.6,0,45.6,0,18.8,0,13.7,0
2004/5/3,3:00,8.6,0,83.7,0,18.5,0,46.9,0,18.6,0,45.7,0,18.8,0,13.8,0
2004/5/3,3:15,8.5,0,84.7,0,18.5,0,46.9,0,18.6,0,45.8,0,18.7,0,13.9,0
2004/5/3,3:30,8.4,0,86.5,0,18.4,0,46.9,0,18.5,0,45.7,0,18.7,0,14,0
2004/5/3,3:45,8.2,0,86.8,0,18.4,0,46.9,0,18.5,0,46,0,18.6,0,14.1,0
2004/5/3,4:00,7.9,0,87.8,0,18.3,0,47,0,18.4,0,46.2,0,18.6,0,14.3,0
2004/5/3,4:15,7.9,0,89.5,0,18.3,0,47,0,18.4,0,46.5,0,18.5,0,14.4,0
2004/5/3,4:30,8.1,0,89.4,0,18.2,0,47.1,0,18.3,0,46.4,0,18.5,0,14.5,0
2004/5/3,4:45,8.1,0,89.1,0,18.2,0,47.1,0,18.3,0,46.7,0,18.4,0,14.6,0
2004/5/3,5:00,8.2,0,89.3,0,18.2,0,47.1,0,18.3,0,46.4,0,18.4,0,14.7,0
2004/5/3,5:15,8.3,0,89,0,18.1,0,47.1,0,18.2,0,46.6,0,18.3,0,14.9,0
2004/5/3,5:30,8.5,0,90.2,0,18.1,0,47.2,0,18.2,0,46.9,0,18.3,0,15,0
2004/5/3,5:45,9.3,0,85.3,0,18,0,47.3,0,18.2,0,46.9,0,18.2,0,14.1,0
2004/5/3,6:00,9.4,0,86.2,0,18,0,47.2,0,18.1,0,46.9,0,18.2,0,14.3,0
2004/5/3,6:15,9.6,0,82.9,0,17.9,0,47.1,0,18.1,0,47,0,18.2,0,14.3,0
2004/5/3,6:30,9.9,0,79.5,0,17.9,0,47,0,18.1,0,47.4,0,18.2,0,14.4,0
2004/5/3,6:45,10.4,0,80.3,0,17.9,0,46.9,0,18.1,0,46.9,0,18.2,0,14.5,0
2004/5/3,7:00,10.8,0,75.6,0,17.8,0,46.9,0,18.1,0,46.9,0,18.2,0,14.6,0
2004/5/3,7:15,11.3,0,74.3,0,17.8,0,46.8,0,18.1,0,46.9,0,18.2,0,14.7,0
2004/5/3,7:30,11.6,0,73.3,0,17.8,0,46.9,0,18.2,0,47.1,0,18.2,0,14.8,0
2004/5/3,7:45,12.2,0,70.9,0,18,0,48.9,0,18.2,0,47.1,0,18.2,0,13.9,0
2004/5/3,8:00,12.7,0,68.9,0,18,0,49.1,0,18.2,0,47.1,0,18.2,0,14,0
2004/5/3,8:15,13.2,0,68.2,0,18,0,50.3,0,18.2,0,46.8,0,18.3,0,14.1,0
2004/5/3,8:30,14,0,65.6,0,18.1,0,53.4,0,18.3,0,47.4,0,18.4,0,14.2,0
2004/5/3,8:45,13.9,0,66.8,0,18.2,0,53.5,0,18.5,0,48.2,0,18.5,0,14.3,0
2004/5/3,9:00,14.1,0,66.1,0,18.3,0,52.3,0,18.5,0,47.5,0,18.6,0,14.4,0
2004/5/3,9:15,14.4,0,67.2,0,18.4,0,54.4,0,18.6,0,50,0,18.6,0,14.5,0
2004/5/3,9:30,15,0,66.1,0,18.6,0,53.9,0,18.8,0,48.3,0,18.7,0,13.5,0
2004/5/3,9:45,15.6,0,65.1,0,18.7,0,54.1,0,19,0,49.4,0,18.8,0,13.4,0
2004/5/3,10:00,16.1,0,65.5,0,18.8,0,53.5,0,19.1,0,49.4,0,18.8,0,13.1,0
2004/5/3,10:15,16.8,0,64.1,0,18.8,0,53.2,0,19.3,0,49.6,0,18.9,0,13.1,0
2004/5/3,10:30,16.4,0,64.8,0,18.8,0,52.7,0,19.5,0,47.3,0,19.1,0,13,0
2004/5/3,10:45,16.9,0,63.4,0,18.8,0,52.3,0,19.7,0,46.6,0,19.2,0,13,0
2004/5/3,11:00,17.2,0,64.6,0,18.9,0,52,0,19.8,0,46.3,0,19.2,0,13.1,0
2004/5/3,11:15,17.5,0,61.3,0,18.9,0,51.7,0,20,0,45.9,0,19.3,0,13.2,0
2004/5/3,11:30,17.9,0,62.8,0,18.9,0,51.6,0,20.2,0,45.5,0,19.4,0,13.3,0
2004/5/3,11:45,17.8,0,61.1,0,19,0,51.4,0,20.4,0,45.2,0,19.5,0,13.5,0
2004/5/3,12:00,17.3,0,65.5,0,19.1,0,51.5,0,20.6,0,45,0,19.7,0,13.6,0
2004/5/3,12:15,18.2,0,62.5,0,19.2,0,51.9,0,20.7,0,45,0,19.8,0,13.7,0
2004/5/3,12:30,18,0,63.6,0,19.2,0,51.9,0,20.9,0,44.9,0,19.9,0,13.8,0
2004/5/3,12:45,17.9,0,63.6,0,19.3,0,51.9,0,21,0,44.8,0,20.1,0,13.9,0
2004/5/3,13:00,18.1,0,65,0,19.4,0,51.6,0,21.1,0,44.7,0,20.2,0,14,0
2004/5/3,13:15,18.6,0,63.5,0,19.4,0,51.7,0,21.1,0,44.7,0,20.4,0,14.1,0
2004/5/3,13:30,18.1,0,65.5,0,19.4,0,51.6,0,21.1,0,44.9,0,20.5,0,14.2,0
2004/5/3,13:45,18.1,0,66.7,0,19.5,0,51.7,0,21.1,0,44.9,0,20.6,0,14.4,0
2004/5/3,14:00,17.7,0,68.7,0,19.5,0,51.8,0,21.2,0,45,0,20.7,0,14.4,0
2004/5/3,14:15,18.1,0,68.8,0,19.6,0,51.6,0,21.4,0,44.7,0,20.8,0,14.5,0
2004/5/3,14:30,18.1,0,69.8,0,19.7,0,51.7,0,21.5,0,45,0,21,0,14.7,0
2004/5/3,14:45,17.7,0,72.7,0,19.7,0,51.9,0,21.5,0,45.3,0,21.1,0,14.8,0
2004/5/3,15:00,18.5,0,70.2,0,19.8,0,52.1,0,21.6,0,45.4,0,21.2,0,14.8,0
2004/5/3,15:15,18.9,0,70.5,0,20,0,52.1,0,21.8,0,45.3,0,21.4,0,14.9,0
2004/5/3,15:30,19.6,0,68.9,0,20,0,52.1,0,21.9,0,45.2,0,21.6,0,15,0
2004/5/3,15:45,19.1,0,71.2,0,20.1,0,52.2,0,22,0,45.2,0,21.8,0,15.1,0
2004/5/3,16:00,18.8,0,72.3,0,20.1,0,52.4,0,22,0,45.5,0,21.9,0,15.2,0
2004/5/3,16:15,18.7,0,73.8,0,20.1,0,52.4,0,22,0,45.7,0,21.9,0,15.3,0
2004/5/3,16:30,18,0,76.7,0,20.1,0,52.6,0,21.9,0,46.3,0,21.9,0,15.4,0
2004/5/3,16:45,17.4,0,79.5,0,20.1,0,53.4,0,21.8,0,47.1,0,21.8,0,15.5,0
2004/5/3,17:00,16.9,0,81.4,0,20.1,0,53.5,0,21.7,0,47,0,21.8,0,15.6,0
2004/5/3,17:15,16.2,0,84.2,0,20.1,0,53.8,0,21.6,0,46.6,0,21.7,0,13.9,0
2004/5/3,17:30,16,0,87.5,0,20.1,0,54.7,0,21.6,0,47,0,21.7,0,14,0
2004/5/3,17:45,15.5,0,90.3,0,20.1,0,54.8,0,21.5,0,47.9,0,21.6,0,14,0
2004/5/3,18:00,15.2,0,93,0,20.1,0,54.9,0,21.4,0,47.6,0,21.6,0,14.1,0
2004/5/3,18:15,14.9,0,95.7,0,20.1,0,54.8,0,21.3,0,47.4,0,21.5,0,14.2,0
2004/5/3,18:30,15,0,95.9,0,20.1,0,54.8,0,21.3,0,48.7,0,21.5,0,14.3,0
2004/5/3,18:45,15.1,0,94.7,0,20.1,0,54.9,0,21.2,0,49.3,0,21.4,0,14.3,0
2004/5/3,19:00,15,0,93.8,0,20.1,0,55,0,21.1,0,50.4,0,21.4,0,14.4,0
2004/5/3,19:15,14.7,0,94.6,0,20.1,0,54.8,0,21.1,0,50.7,0,21.3,0,14.5,0
2004/5/3,19:30,14.8,0,94.5,0,20.1,0,54.9,0,21,0,50.7,0,21.3,0,14.6,0
2004/5/3,19:45,14.6,0,94.1,0,20.1,0,54.9,0,20.9,0,50.8,0,21.2,0,14.7,0
2004/5/3,20:00,14.5,0,95.3,0,20.1,0,54.9,0,20.9,0,50.9,0,21.2,0,14.7,0
2004/5/3,20:15,14.7,0,95.2,0,20.1,0,54.9,0,20.9,0,50.8,0,21.1,0,14.8,0
2004/5/3,20:30,14.5,0,95.8,0,20.1,0,55,0,20.8,0,51.1,0,21.1,0,14.9,0
2004/5/3,20:45,14.3,0,95.9,0,20.1,0,54.5,0,20.7,0,50.9,0,21,0,15,0
2004/5/3,21:00,14.4,0,95.9,0,20.2,0,55,0,20.7,0,51,0,21,0,15,0
2004/5/3,21:15,14.2,0,96.7,0,20.2,0,55.5,0,20.7,0,49.9,0,21,0,15.1,0
2004/5/3,21:30,14.3,0,96.6,0,20.2,0,56,0,20.7,0,50.3,0,20.9,0,13.6,0
2004/5/3,21:45,14.3,0,96.9,0,20.3,0,56.8,0,20.7,0,50.6,0,20.9,0,13,0
2004/5/3,22:00,14.2,0,96,0,20.3,0,57.2,0,20.6,0,52.4,0,20.9,0,13.2,0
2004/5/3,22:15,14,0,98,0,20.4,0,56.8,0,20.6,0,52.5,0,20.9,0,13.2,0
2004/5/3,22:30,13.9,0,99.1,0,20.3,0,56.3,0,20.6,0,50.9,0,20.8,0,13.3,0
2004/5/3,22:45,13.9,0,99.5,0,20.4,0,56.9,0,20.5,0,51.5,0,20.8,0,13.4,0
2004/5/3,23:00,13.9,0,100,0,20.5,0,57.1,0,20.5,0,52.1,0,20.8,0,13.1,0
2004/5/3,23:15,14,0,100,0,20.4,0,56.9,0,20.5,0,51.7,0,20.8,0,13.2,0
2004/5/3,23:30,14.1,0,100,0,20.5,0,56.8,0,20.5,0,51.6,0,20.7,0,13.3,0
2004/5/3,23:45,14.1,0,100,0,20.5,0,56.1,0,20.4,0,52.3,0,20.7,0,13.3,0
2004/5/4,0:00,14.2,0,100,0,20.5,0,56.1,0,20.4,0,52.8,0,20.7,0,13.4,0
2004/5/4,0:15,14.3,0,100,0,20.5,0,56.7,0,20.4,0,53.1,0,20.7,0,13.5,0
2004/5/4,0:30,14.5,0,100,0,20.5,0,56.9,0,20.4,0,53.8,0,20.6,0,13.6,0
2004/5/4,0:45,14.4,0,100,0,20.4,0,56.3,0,20.3,0,52.5,0,20.6,0,13.2,0
2004/5/4,1:00,14.5,0,100,0,20.4,0,58.9,0,20.4,0,58,0,20.6,0,13.3,0
2004/5/4,1:15,14.4,0,100,0,20.4,0,59.4,0,20.4,0,57.6,0,20.6,0,13.4,0
2004/5/4,1:30,14.3,0,100,0,20.3,0,59.3,0,20.4,0,56.4,0,20.6,0,13.5,0
2004/5/4,1:45,14.1,0,100,0,20.3,0,58.8,0,20.4,0,57.5,0,20.6,0,13.6,0
2004/5/4,2:00,14.1,0,100,0,20.2,0,58,0,20.4,0,56.2,0,20.6,0,13.8,0
2004/5/4,2:15,14,0,100,0,20.2,0,57.5,0,20.4,0,56.2,0,20.5,0,13.9,0
2004/5/4,2:30,14,0,100,0,20.1,0,57.1,0,20.4,0,57.2,0,20.5,0,14,0
2004/5/4,2:45,14,0,100,0,20.1,0,56.9,0,20.3,0,55.1,0,20.5,0,14.1,0
2004/5/4,3:00,13.9,0,100,0,20,0,57,0,20.3,0,55.1,0,20.4,0,14.3,0
2004/5/4,3:15,13.9,0,100,0,20,0,56.8,0,20.3,0,55.3,0,20.4,0,14.4,0
2004/5/4,3:30,13.8,0,100,0,20,0,57.4,0,20.3,0,56.1,0,20.4,0,14.5,0
2004/5/4,3:45,13.7,0,100,0,20,0,57.7,0,20.3,0,56,0,20.3,0,14.6,0
2004/5/4,4:00,13.7,0,100,0,19.9,0,58,0,20.3,0,56.2,0,20.3,0,14.7,0
2004/5/4,4:15,13.8,0,100,0,19.9,0,58,0,20.2,0,54.9,0,20.3,0,14.8,0
2004/5/4,4:30,13.7,0,100,0,19.9,0,58.3,0,20.2,0,54.7,0,20.3,0,14.9,0
2004/5/4,4:45,13.9,0,100,0,19.9,0,58.2,0,20.2,0,55.1,0,20.2,0,15,0
2004/5/4,5:00,14.1,0,100,0,19.9,0,58,0,20.2,0,55.6,0,20.2,0,15.2,0
2004/5/4,5:15,14.1,0,100,0,19.9,0,58.3,0,20.1,0,54.4,0,20.2,0,15.3,0
2004/5/4,5:30,14.3,0,100,0,19.9,0,58.3,0,20.1,0,55,0,20.2,0,15.4,0
2004/5/4,5:45,14.5,0,100,0,19.9,0,58.1,0,20.1,0,54.5,0,20.1,0,15.5,0
2004/5/4,6:00,14.9,0,99.1,0,19.9,0,58,0,20.1,0,55.8,0,20.1,0,14.3,0
2004/5/4,6:15,15.4,0,96.4,0,19.9,0,59.5,0,20.1,0,56.5,0,20.1,0,14,0
2004/5/4,6:30,15.4,0,96,0,19.9,0,59.2,0,20.3,0,56.6,0,20.1,0,14.1,0
2004/5/4,6:45,15.4,0,95.8,0,19.9,0,59.2,0,20.2,0,55.7,0,20.1,0,14.1,0
2004/5/4,7:00,15.3,0,97.2,0,19.9,0,59.3,0,20.2,0,56.4,0,20.1,0,14.2,0
2004/5/4,7:15,15.2,0,97.3,0,19.9,0,59.3,0,20.1,0,56.4,0,20.1,0,14.3,0
2004/5/4,7:30,15.6,0,95.9,0,20,0,59.3,0,20.2,0,54.2,0,20.1,0,14,0
2004/5/4,7:45,16.3,0,93,0,19.9,0,59.4,0,20.1,0,56,0,20.1,0,13.7,0
2004/5/4,8:00,17.5,0,86.7,0,20,0,61.8,0,20.1,0,55,0,20.2,0,13.7,0
2004/5/4,8:15,18,0,83.3,0,20.2,0,61.7,0,20.1,0,56.9,0,20.2,0,13.8,0
2004/5/4,8:30,18.2,0,81.9,0,20.2,0,65.1,0,20.2,0,61.4,0,20.3,0,13.9,0
2004/5/4,8:45,18.3,0,81.6,0,20.3,0,66.5,0,20.3,0,61.7,0,20.4,0,14,0
2004/5/4,9:00,18.3,0,82.2,0,20.4,0,62.8,0,20.3,0,57.5,0,20.4,0,14.1,0
2004/5/4,9:15,18.5,0,80.6,0,20.4,0,62.3,0,20.3,0,58.2,0,20.5,0,14.1,0
2004/5/4,9:30,18.7,0,79.4,0,20.5,0,61.7,0,20.4,0,59.7,0,20.5,0,13.1,0
2004/5/4,9:45,19.2,0,76.7,0,20.5,0,62.4,0,20.5,0,59,0,20.6,0,13.4,0
2004/5/4,10:00,19.7,0,74.6,0,20.6,0,61.7,0,20.5,0,59.1,0,20.6,0,13.5,0
2004/5/4,10:15,19.7,0,74.9,0,20.7,0,62,0,20.6,0,60,0,20.7,0,13.6,0
2004/5/4,10:30,19.6,0,74.9,0,20.7,0,61.7,0,20.7,0,59.9,0,20.8,0,13.8,0
2004/5/4,10:45,19.3,0,76,0,20.8,0,61.7,0,20.7,0,59.4,0,20.9,0,13.9,0
2004/5/4,11:00,19.5,0,76.9,0,20.9,0,61.7,0,20.8,0,60.1,0,21,0,14.1,0
2004/5/4,11:15,19.7,0,74.6,0,21,0,62.3,0,20.9,0,60,0,21.1,0,14.2,0
2004/5/4,11:30,20.7,0,73.7,0,21,0,61.7,0,21.1,0,59.5,0,21.2,0,14.4,0
2004/5/4,11:45,21.2,0,71.5,0,21.1,0,62.8,0,21.3,0,59.9,0,21.3,0,13.3,0
2004/5/4,12:00,21.8,0,68.5,0,21.3,0,63.1,0,21.4,0,60.2,0,21.4,0,13.4,0
2004/5/4,12:15,22.6,0,66.3,0,21.3,0,63.9,0,21.6,0,60.2,0,21.4,0,13.5,0
2004/5/4,12:30,23,0,65.1,0,21.4,0,64.2,0,21.8,0,59.6,0,21.5,0,13.2,0
2004/5/4,12:45,23.8,0,62.5,0,21.5,0,64.3,0,21.9,0,59.7,0,21.7,0,13.3,0
2004/5/4,13:00,23.7,0,62,0,21.5,0,64.5,0,22,0,59,0,21.7,0,13.4,0
2004/5/4,13:15,23.4,0,64,0,21.7,0,66.2,0,22.2,0,61.5,0,21.8,0,13.5,0